Airfield :
LOGIN :

Register | Disclaimer

   EN    FR    IT 

 










Legend :    VFR   Marginal VFR   IFR   Intensive IFR   Very Intensive IFR
Visi :
Ceiling :
>= 8 km
>= 3000ft
5 to 8 km
1000 to 3000 ft
1500m to 5 km
500 to 1000 ft
800 to 1500m
200 to 500 ft
< 800m
< 200 ft
Symbols :   Thunderstorms  Fog  Heavy snow  Heavy precipitations  Wind > 20 kt
SIGMETs :     Misc.  Thunderstorms  Icing  Turbulence  Mountain Waves  Volcanic Ashes







- Airport Elevation : 194 ft
- IATA code : IEG


EPZG - Zielona Gora Babimost

CURRENT METAR :
  • 240230Z 00000KT CAVOK 04/03 Q1028

EXPIRED METARs :
  • 240200Z 27003KT CAVOK 03/03 Q1028
  • 240130Z 24001KT 9999 FEW034 05/04 Q1028
  • 240100Z 32003KT 9999 SCT034 07/04 Q1028
  • 240030Z 33005KT 270V010 9999 BKN034 08/04 Q1028
  • 240000Z 34004KT 310V020 9999 BKN032 09/05 Q1028

TAF TAF EPZG
Valid from the 24 at 03:00 until the 24 at 12:00 UTC


240230Z 2403/2412 27003KT CAVOK
PROB30 2403/2408 3000 BR
No reported NOTAMs for that airfield.



MET'MAP, your aeronautical weather chart ! - Copyright ORBIFLY December 2007 - Disclaimer

ORBIFLY MET'MAP TEAM :

Programming & Development : Alexandra Zaïnal
Concept & Development : Baudouin d'Aumeries
Co-Development & Prog : Marc-Olivier Méhu
Technical & hardware support : Manuel Goepfert

Contact : metmap@orbifly.com




SOURCES & CREDITS :

   NOAA